TimeEST,TemperatureF,Dew PointF,Humidity,Sea Level PressureIn,VisibilityMPH,Wind Direction,Wind SpeedMPH,Gust SpeedMPH,PrecipitationIn,Events,Conditions,WindDirDegrees,DateUTC
12:56 AM,35.1,27.0,72,29.94,4.0,North,20.7,28.8,N/A,Snow,Light Snow,10,2013-03-07 05:56:00
1:56 AM,35.1,26.1,70,29.94,6.0,North,17.3,32.2,N/A,Snow,Light Snow,10,2013-03-07 06:56:00
2:56 AM,35.1,26.1,70,29.92,10.0,NNE,16.1,31.1,N/A,,Overcast,20,2013-03-07 07:56:00
3:56 AM,35.1,24.1,64,29.94,10.0,North,17.3,28.8,N/A,,Overcast,360,2013-03-07 08:56:00
4:56 AM,35.1,23.0,61,29.96,10.0,NNE,16.1,27.6,N/A,,Overcast,30,2013-03-07 09:56:00
5:56 AM,35.1,23.0,61,29.97,10.0,North,16.1,28.8,N/A,,Mostly Cloudy,10,2013-03-07 10:56:00
6:56 AM,34.0,24.1,67,29.99,4.0,North,16.1,-,N/A,Snow,Light Snow,350,2013-03-07 11:56:00
7:01 AM,33.8,24.8,70,29.97,1.5,North,16.1,24.2,N/A,Snow,Light Snow,350,2013-03-07 12:01:00
7:18 AM,33.8,26.6,75,29.97,1.5,North,12.7,21.9,N/A,Snow,Light Snow,350,2013-03-07 12:18:00
7:56 AM,32.0,27.0,82,30.00,0.5,North,15.0,24.2,N/A,Snow,Snow,360,2013-03-07 12:56:00
8:22 AM,32.0,28.4,87,29.98,1.0,North,19.6,25.3,N/A,Snow,Light Snow,360,2013-03-07 13:22:00
8:38 AM,33.8,26.6,75,29.98,4.0,North,17.3,24.2,N/A,Snow,Light Snow,360,2013-03-07 13:38:00
8:56 AM,34.0,27.0,75,30.00,7.0,North,16.1,24.2,N/A,,Mostly Cloudy,360,2013-03-07 13:56:00
9:56 AM,35.1,27.0,72,30.00,4.0,North,19.6,28.8,N/A,Snow,Light Snow,360,2013-03-07 14:56:00
10:56 AM,36.0,28.0,73,30.00,6.0,North,13.8,29.9,N/A,Snow,Light Snow,360,2013-03-07 15:56:00
11:11 AM,35.6,28.4,75,29.99,1.8,North,20.7,28.8,N/A,Snow,Light Snow,350,2013-03-07 16:11:00
11:56 AM,36.0,28.9,76,30.01,1.8,NNW,16.1,21.9,N/A,Snow,Light Snow,340,2013-03-07 16:56:00
12:03 PM,35.6,28.4,75,29.99,2.0,North,15.0,24.2,N/A,Snow,Light Snow,350,2013-03-07 17:03:00
12:56 PM,37.9,30.0,73,30.00,7.0,NNW,17.3,25.3,N/A,Snow,Light Snow,340,2013-03-07 17:56:00
1:56 PM,36.0,28.0,73,30.01,6.0,North,21.9,29.9,N/A,Snow,Light Snow,350,2013-03-07 18:56:00
2:56 PM,35.1,28.9,78,30.03,2.5,North,17.3,26.5,N/A,Snow,Light Snow,350,2013-03-07 19:56:00
3:22 PM,33.8,28.4,81,30.01,1.5,NNW,18.4,24.2,0.00,Snow,Light Snow,340,2013-03-07 20:22:00
3:56 PM,34.0,28.9,82,30.04,1.5,NNW,12.7,25.3,0.00,Snow,Light Snow,340,2013-03-07 20:56:00
4:56 PM,33.1,28.9,85,30.05,1.5,NNW,18.4,25.3,0.00,Snow,Light Snow,330,2013-03-07 21:56:00
5:56 PM,33.1,28.9,85,30.06,1.5,NNW,19.6,27.6,0.01,Snow,Light Snow,340,2013-03-07 22:56:00
6:56 PM,33.1,28.9,85,30.07,1.2,NNW,19.6,27.6,0.01,Snow,Light Snow,340,2013-03-07 23:56:00
7:56 PM,33.1,28.9,85,30.06,1.5,NNW,18.4,28.8,0.01,Snow,Light Snow,340,2013-03-08 00:56:00
7:58 PM,33.8,28.4,81,30.04,0.8,NNW,18.4,28.8,0.00,Snow,Light Snow,340,2013-03-08 00:58:00
8:56 PM,32.0,28.9,88,30.05,0.8,NNW,20.7,25.3,0.02,Snow,Light Snow,340,2013-03-08 01:56:00
9:56 PM,32.0,28.9,88,30.05,1.0,NNW,16.1,26.5,0.00,Snow,Light Snow,340,2013-03-08 02:56:00
10:56 PM,32.0,28.9,88,30.04,1.0,NNW,16.1,-,0.01,Snow,Light Snow,340,2013-03-08 03:56:00
11:56 PM,32.0,28.0,85,30.04,1.5,NNW,15.0,21.9,0.00,Snow,Light Snow,330,2013-03-08 04:56:00